Weather History for KMYF - November, 2012

Change the Weather History Date:

Sunday, November 25, 2012

  Actual Average Record
Temperature  
Mean Temperature 58 °F -  
Max Temperature 64 °F 66 °F 78 °F (2014)
Min Temperature 53 °F 46 °F 39 °F (2010)
Degree Days  
Heating Degree Days 6    
Growing Degree Days 8 (Base 50)    
Moisture  
Dew Point 54 °F    
Average Humidity 88    
Maximum Humidity 100    
Minimum Humidity 67    
Precipitation  
Precipitation 0.00 in - - ()
Sea Level Pressure  
Sea Level Pressure 29.95 in    
Wind  
Wind Speed 2 mph (SSW)    
Max Wind Speed 7 mph    
Max Gust Speed -    
Visibility 4 miles    
Events Fog    
Averages and records for this station are not official NWS values.
T = Trace of Precipitation, MM = Missing Value Source: NWS Daily Summary

Daily Weather History Graph

Daily Weather History Graph

Search for Another Location

Airport or City:

Trip Planner

Search our weather history database for the weather conditions in past years. The results will help you decide how hot, cold, wet, or windy it might be!

Date:

Astronomy

Nov. 25, 2012 Rise Set
Actual Time 6:28 AM PST 4:42 PM PST
Civil Twilight 6:01 AM PST 5:09 PM PST
Nautical Twilight 5:31 AM PST 5:39 PM PST
Astronomical Twilight 5:01 AM PST 6:09 PM PST
Moon 2:57 PM PST (11/25) 3:52 AM PST (11/25)
Length of Visible Light 11h 08m
Length of Day
10h 14m
Waxing Gibbous, 93% of the Moon is Illuminated
Nov 25
Waxing Gibbous
Nov 28
Full
Dec 6
Last Quarter
Dec 13
New
Dec 19
First Quarter

Hourly Weather History & Observations

Time (PST) Temp. Dew Point Humidity Pressure Visibility Wind Dir Wind Speed Gust Speed Precip Events Conditions
12:34 AM 57.2 °F 55.4 °F 94% 29.95 in 0.8 mi Calm Calm - N/A   Overcast
12:53 AM 55.9 °F 55.0 °F 97% 29.94 in 0.2 mi Calm Calm - N/A Fog Fog
1:03 AM 55.4 °F 55.4 °F 100% 29.94 in 0.2 mi Calm Calm - N/A Fog Fog
1:53 AM 55.0 °F 54.0 °F 96% 29.93 in 0.2 mi Calm Calm - N/A Fog Fog
2:53 AM 55.0 °F 54.0 °F 96% 29.92 in 0.2 mi Calm Calm - N/A Fog Fog
3:53 AM 54.0 °F 54.0 °F 100% 29.92 in 0.2 mi Calm Calm - N/A Fog Fog
4:53 AM 54.0 °F 54.0 °F 100% 29.93 in 0.2 mi Calm Calm - N/A Fog Fog
5:53 AM 54.0 °F 53.1 °F 97% 29.95 in 0.2 mi South 4.6 mph - N/A Fog Fog
6:31 AM 53.6 °F 53.6 °F 100% 29.96 in 0.2 mi Calm Calm - N/A Fog Fog
6:53 AM 55.0 °F 54.0 °F 96% 29.96 in 0.2 mi Calm Calm - N/A Fog Fog
7:26 AM 53.6 °F 53.6 °F 100% 29.97 in 0.5 mi Calm Calm - N/A Fog Fog
7:51 AM 53.6 °F 53.6 °F 100% 29.97 in 0.2 mi SSE 3.5 mph - N/A Fog Fog
7:53 AM 54.0 °F 53.1 °F 97% 29.97 in 0.2 mi Calm Calm - N/A Fog Fog
8:38 AM 53.6 °F 53.6 °F 100% 29.98 in 0.8 mi Variable 3.5 mph - N/A   Mist
8:53 AM 54.0 °F 52.0 °F 93% 29.97 in 1.0 mi South 4.6 mph - N/A   Overcast
9:41 AM 55.4 °F 51.8 °F 88% 29.98 in 2.0 mi Variable 4.6 mph - N/A   Mostly Cloudy
9:53 AM 57.9 °F 52.0 °F 81% 29.97 in 2.5 mi SW 6.9 mph - N/A   Haze
10:23 AM 59.0 °F 53.6 °F 82% 29.98 in 3.0 mi South 6.9 mph - N/A   Haze
10:30 AM 59.0 °F 53.6 °F 82% 29.98 in 2.0 mi SSW 5.8 mph - N/A   Haze
10:53 AM 57.9 °F 52.0 °F 81% 29.97 in 3.0 mi SW 6.9 mph - N/A   Haze
11:51 AM 59.0 °F 53.6 °F 82% 29.94 in 4.0 mi Calm Calm - N/A   Haze
11:53 AM 59.0 °F 53.1 °F 81% 29.94 in 4.0 mi Calm Calm - N/A   Haze
12:53 PM 63.0 °F 53.1 °F 70% 29.91 in 6.0 mi SSW 6.9 mph - N/A   Haze
1:53 PM 64.0 °F 53.1 °F 67% 29.91 in 10.0 mi SW 6.9 mph - N/A   Clear
2:53 PM 64.0 °F 54.0 °F 70% 29.90 in 10.0 mi WSW 5.8 mph - N/A   Clear
3:53 PM 63.0 °F 54.0 °F 72% 29.90 in 10.0 mi WSW 3.5 mph - N/A   Clear
4:53 PM 60.1 °F 54.0 °F 80% 29.89 in 10.0 mi Calm Calm - N/A   Clear
5:53 PM 57.9 °F 53.1 °F 84% 29.91 in 9.0 mi South 4.6 mph - N/A   Partly Cloudy
6:53 PM 57.0 °F 53.1 °F 87% 29.93 in 7.0 mi SW 3.5 mph - N/A   Partly Cloudy
7:27 PM 57.2 °F 53.6 °F 88% 29.95 in 6.0 mi Calm Calm - N/A   Haze
7:46 PM 57.2 °F 53.6 °F 88% 29.95 in 6.0 mi South 4.6 mph - N/A   Haze
7:53 PM 57.0 °F 53.1 °F 87% 29.95 in 6.0 mi South 3.5 mph - N/A   Haze
8:53 PM 57.0 °F 54.0 °F 89% 29.97 in 6.0 mi SE 4.6 mph - N/A   Overcast
9:53 PM 57.0 °F 54.0 °F 89% 29.98 in 9.0 mi Calm Calm - N/A   Overcast
10:53 PM 57.9 °F 53.1 °F 84% 29.98 in 9.0 mi South 4.6 mph - N/A   Overcast
11:53 PM 57.9 °F 53.1 °F 84% 29.97 in 9.0 mi South 5.8 mph - N/A   Overcast